sat.trackr.live / text

‹ back to catalog

STARLINK-3073

NORAD 49135 · 2021-082F

PAYLOAD ACTIVE UNKNOWN

§ Identity

Operator
Country
US
Launch date
2021-09-14
Launch site
AFWTR
Launch vehicle
Mass (kg)
RCS (m²)

Purposes: comms

External: N2YO · Heavens-Above · Gunter

§ Orbital elements

Epoch: 2026-09-20T02:14:37.911840Z

Period
96.11 min
Inclination
69.9984°
Eccentricity
0.0002693
Mean motion
14.98324540 rev/d
Perigee alt
570.2 km
Apogee alt
573.9 km
Semi-major
6,950.2 km
B*
-3.4913e-5
RAAN
124.2792°
Arg perigee
267.1560°
Mean anomaly
92.9291°
Rev number
27,609

§ Raw data

STARLINK-30731 49135U 21082F   26263.09349435 -.00000509  00000+0 -34913-4 0  99902 49135  69.9984 124.2792 0002693 267.1560  92.9291 14.98324540276099

JSON: /api/v1/satellites/49135 · /tle

For live sub-satellite position, see the globe view (requires WebGL).

§ Visibility from observer

Set your observer location to see the next 7 days of passes ≥ 10°. The values pass through the URL so the page stays shareable.

No JS? Fill the form by hand. The geolocation button needs JavaScript.